ARABSAT-5C

Last updated on Sun Jun 21 2026 00:03:05 GMT+0000 (Coordinated Universal Time)

1 37810U 11049B 26171.32470138 .00000119 00000+0 00000+0 0 9998 2 37810 0.0558 25.3787 0003461 82.0626 297.9854 1.00273101 54063
UTC large
Height (km)
Speed (km/s)
/
Latitude / Longitude
Inclination (degrees)
Orbital Period (minutes)
Azimuth
Elevation
Range (km)
Doppler Factor

Next 0 passes for location: London (51.5072 / 0.1276)

No passes found over London.
ARABSAT-5C